#timestamp,LO_Frequency,Hit 
1503932415.5,286046995.2,N
1503932435.3,286046995.7,N
1503932455.2,286046996.4,N
1503932475.9,286046996.0,N
1503932495.7,286046994.1,P
1503932515.6,286046998.0,N
1503932535.4,286046996.7,N
1503932555.2,286046996.7,N
1503932575.1,286046997.4,N
1503932576.0,286046997.4,N
1503932595.8,286046999.2,N
1503932615.6,286046998.7,N
1503932635.5,286046998.9,N
1503932655.3,286046999.0,N
1503932675.1,286046996.7,N
1503932695.8,286046997.5,N
1503932715.7,286046996.7,N
1503932735.5,286046997.7,N
1503932755.3,286046997.6,N
1503932775.2,286046995.3,P
1503932795.0,286046998.5,N
1503932795.9,286046998.5,N
1503932815.7,286046998.4,N
1503932835.6,286046998.3,N
1503932855.4,286046999.4,N
1503932875.2,286046998.6,N
1503932895.1,286046998.1,N
1503932896.0,286046998.1,N
1503932915.8,286047000.9,N
1503932935.6,286046999.3,N
1503932955.5,286046999.2,N
1503932975.3,286046996.5,N
1503932995.1,286046996.8,N
1503933015.9,286046997.2,N
1503933035.7,286046996.9,N
1503933055.5,286046999.0,N
1503933075.3,286046996.7,N
1503933095.2,286046999.6,N
1503933115.0,286046996.6,N
1503933115.9,286046996.6,N
1503933135.7,286046997.0,N
1503933155.6,286046997.6,N
1503933175.4,286046995.8,P
1503933195.3,286046996.5,P
1503933215.1,286046996.6,P
1503933216.0,286046996.6,P
1503933235.8,286046999.7,P
1503933255.7,286047000.2,N
1503933275.5,286047000.4,N
1503933295.3,286047000.4,N
1503933315.1,286047000.0,N
1503933335.9,286047000.3,N
1503933355.7,286047000.5,N
1503933375.5,286047002.8,N
1503933395.4,286047002.2,N
1503933415.2,286047001.5,N
1503933435.0,286047002.6,N
1503933435.9,286047002.6,N
1503933455.8,286047002.3,N
1503933475.6,286047002.8,N
1503933495.4,286047002.7,N
1503933515.3,286046999.9,N
1503933535.1,286047000.1,N
1503933536.0,286047000.1,N
1503933555.8,286047000.2,N
1503933575.7,286047000.2,N
1503933595.5,286047000.1,N
1503933615.3,286047000.2,N
1503933635.1,286047002.8,N
1503933655.9,286047000.2,N
1503933675.7,286047002.1,N
1503933695.5,286047002.5,N
1503933715.4,286046999.8,N
1503933735.2,286047000.8,N
1503933755.0,286047000.7,N
1503933755.9,286047000.7,N
1503933775.8,286046998.5,N
1503933795.6,286046998.4,N
1503933815.4,286046998.7,N
1503933835.3,286047000.8,N
1503933855.1,286046999.9,N
1503933856.0,286046999.9,N
1503933875.8,286046998.1,N
1503933895.7,286046998.2,N
1503933915.5,286047002.5,N
1503933935.3,286047000.0,N
1503933955.1,286046999.7,N
1503933975.9,286047001.8,N
1503933995.7,286047001.8,N
1503934015.5,286047002.5,N
1503934035.4,286046999.9,N
1503934055.2,286047000.7,N
1503934075.0,286046997.0,N
1503934075.9,286046997.0,N
1503934095.8,286047001.1,N
1503934115.6,286047000.8,N
1503934135.4,286047000.9,N
1503934155.3,286046999.1,N
1503934175.1,286046996.9,N
1503934176.0,286046996.9,N
1503934195.8,286046999.5,N
1503934215.7,286046996.5,N
1503934235.5,286046996.9,N
1503934255.3,286046997.2,N
1503934275.1,286046996.8,N
1503934295.9,286046997.8,N
1503934315.7,286046996.7,N
1503934335.5,286046999.3,N
1503934355.4,286046999.4,N
1503934375.2,286046998.8,N
1503934395.0,286047000.8,N
1503934395.9,286047000.8,N
1503934415.8,286047000.8,N
1503934435.6,286046999.4,N
1503934455.4,286046996.1,N
1503934475.3,286046995.3,N
1503934495.1,286046995.5,N
1503934515.2,286046997.7,N
1503934535.9,286046996.9,N
1503934555.7,286046996.9,N
1503934575.5,286046996.9,N
1503934595.5,286046996.2,N
1503934615.4,286046993.9,P
1503934635.2,286046997.4,N
1503934655.1,286046997.8,N
1503934656.0,286046997.8,N
1503934675.8,286046997.9,N
1503934695.6,286046997.8,N
1503934715.4,286046998.0,N
1503934735.3,286046994.9,P
1503934755.1,286046998.3,N
1503934775.9,286047000.7,N
1503934795.7,286046998.1,N
1503934815.5,286047000.3,N
1503934835.3,286047000.8,N
1503934855.2,286047000.5,N
1503934875.9,286046998.1,N
1503934895.7,286046998.6,N
1503934915.6,286047001.2,N
1503934935.4,286046999.0,N
1503934955.3,286046998.6,N
1503934975.1,286046999.1,N
1503934976.0,286046999.1,N
1503934995.8,286046999.5,N
1503935015.7,286046998.8,N
1503935035.5,286046998.9,N
1503935055.3,286046998.4,N
1503935075.1,286046999.3,N
1503935095.9,286046998.8,N
1503935115.7,286046999.0,N
1503935135.5,286046998.3,N
1503935155.4,286046999.2,N
1503935175.2,286046999.5,N
1503935195.0,286046996.6,N
1503935195.9,286046996.6,N
1503935215.8,286046999.0,N
1503935235.6,286046999.5,N
1503935255.4,286046996.9,N
1503935275.3,286046997.2,N
1503935295.1,286046996.0,P
1503935315.8,286046996.5,N
1503935335.7,286046996.9,N
1503935355.5,286046998.3,N
1503935375.3,286047001.0,N
1503935395.2,286047000.7,N
1503935415.0,286047000.6,N
1503935415.9,286047000.6,N
1503935435.8,286047001.1,N
1503935455.6,286046999.6,N
1503935475.4,286046997.8,N
1503935495.3,286046994.9,N
1503935515.1,286046996.9,N
1503935516.0,286046996.9,N
1503935535.8,286046999.2,N
1503935555.7,286046998.3,N
1503935575.5,286047001.2,N
1503935595.3,286046998.9,N
1503935615.2,286046997.6,N
1503935635.9,286046997.8,N
1503935655.7,286046997.9,N
1503935675.5,286046997.5,N
1503935695.4,286046996.9,N
1503935715.2,286046999.4,N
1503935735.0,286046998.6,N
1503935735.9,286046998.6,N
1503935755.8,286046999.5,N
1503935775.6,286046999.5,N
1503935795.4,286046995.1,P
1503935815.3,286046998.3,N
1503935835.1,286047000.8,N
1503935855.8,286047000.9,N
1503935875.7,286046996.9,N
1503935895.5,286046997.9,N
1503935915.4,286046995.4,N
1503935935.2,286046995.3,N
1503935955.1,286046997.6,N
1503935956.0,286046997.6,N
1503935975.8,286046995.7,N
1503935995.6,286046996.7,N
